Location: Lake Sonoma
(38.7200°N, 123.0564°W)
Time: 03:33:40
(UTC-07:00)

ISS - Visible Passes

Search period start: 26 July 2017 00:00
Search period end: 05 August 2017 00:00
Orbit: 400 x 408 km, 51.6° (Epoch: 26 July)

Date Brightness Start Highest point End Pass type
(mag) Time Alt. Az. Time Alt. Az. Time Alt. Az.
26 Jul -3.0 21:01:52 10° WSW 21:05:03 55° NW 21:08:16 10° NE visible
26 Jul -0.5 22:40:30 10° NW 22:42:06 13° NNW 22:43:43 10° NNE visible
27 Jul -0.8 21:47:13 10° WNW 21:49:30 18° NNW 21:51:49 10° NNE visible
28 Jul -1.4 20:54:10 10° W 20:56:59 26° NNW 20:59:47 10° NNE visible
29 Jul -0.3 00:11:31 10° N 00:11:48 10° N 00:11:48 10° N visible
29 Jul -0.6 21:40:20 10° NW 21:41:39 12° NNW 21:42:58 10° N visible
31 Jul -0.4 00:02:21 10° NNW 00:02:54 12° N 00:02:54 12° N visible
31 Jul -0.7 23:10:33 10° N 23:11:33 11° NNE 23:12:10 11° NNE visible
01 Aug -0.4 23:53:34 10° NNW 23:54:04 13° NNW 23:54:04 13° NNW visible
02 Aug -1.1 23:01:31 10° NNW 23:03:22 16° NNE 23:03:22 16° NNE visible
03 Aug -1.0 22:09:35 10° N 22:10:55 12° NNE 22:12:16 10° NE visible
03 Aug -0.5 23:44:54 10° NW 23:45:18 13° NW 23:45:18 13° NW visible
04 Aug -1.6 22:52:41 10° NNW 22:54:38 23° N 22:54:38 23° N visible
